Weather History for Stevens Point, WI

Change the Weather History Date:

Thursday, October 25, 2012

  Actual Average Record
Temperature  
Mean Temperature 50 °F -  
Max Temperature 67 °F 55 °F 77 °F (1963)
Min Temperature 33 °F 36 °F 17 °F (2006)
Degree Days  
Heating Degree Days 15    
Moisture  
Dew Point 49 °F    
Average Humidity 87    
Maximum Humidity 98    
Minimum Humidity 75    
Precipitation  
Precipitation 0.38 in - - ()
Sea Level Pressure  
Sea Level Pressure 29.69 in    
Wind  
Wind Speed 10 mph (WSW)    
Max Wind Speed 18 mph    
Max Gust Speed 32 mph    
Visibility 9 miles    
Events Rain , Thunderstorm    
Averages and records for this station are not official NWS values.
T = Trace of Precipitation, MM = Missing Value Source: NWS Daily Summary

Daily Weather History Graph

Daily Weather History Graph

Search for Another Location

Airport:

Trip Planner

Search our weather history database for the weather conditions in past years. The results will help you decide how hot, cold, wet, or windy it might be!

Date:

Astronomy

Oct. 25, 2012 Rise Set
Actual Time 7:26 AM CDT 5:56 PM CDT
Civil Twilight 6:57 AM CDT 6:26 PM CDT
Nautical Twilight 6:22 AM CDT 7:00 PM CDT
Astronomical Twilight 5:49 AM CDT 7:34 PM CDT
Moon 3:50 PM CDT (10/25) 3:14 AM CDT (10/25)
Length of Visible Light 11h 29m
Length of Day
10h 29m
Waxing Gibbous, 84% of the Moon is Illuminated
Oct 25
Waxing Gibbous
Oct 29
Full
Nov 6
Last Quarter
Nov 13
New
Nov 20
First Quarter

Hourly Weather History & Observations

Time (CDT) Temp. Windchill Dew Point Humidity Pressure Visibility Wind Dir Wind Speed Gust Speed Precip Events Conditions
12:15 AM 65.8 °F - 62.6 °F 89% 29.71 in 10.0 mi South 8.1 mph - N/A   Overcast
12:35 AM 65.8 °F - 62.6 °F 89% 29.69 in 10.0 mi South 6.9 mph - N/A   Overcast
12:55 AM 66.4 °F - 62.6 °F 88% 29.69 in 10.0 mi South 6.9 mph - N/A Thunderstorm Thunderstorm
1:15 AM 66.2 °F - 62.6 °F 88% 29.69 in 10.0 mi SSE 4.6 mph - N/A   Overcast
1:35 AM 66.4 °F - 62.4 °F 87% 29.67 in 10.0 mi South 11.5 mph - N/A   Overcast
1:55 AM 67.1 °F - 62.4 °F 85% 29.66 in 10.0 mi South 8.1 mph - N/A   Overcast
2:15 AM 66.7 °F - 62.1 °F 85% 29.67 in 10.0 mi South 8.1 mph - N/A   Overcast
2:35 AM 66.7 °F - 62.2 °F 85% 29.67 in 10.0 mi South 8.1 mph - N/A   Overcast
2:55 AM 66.2 °F - 62.1 °F 86% 29.65 in 10.0 mi SSE 9.2 mph - N/A   Overcast
3:15 AM 65.8 °F - 61.9 °F 87% 29.64 in 10.0 mi South 11.5 mph - N/A   Overcast
3:35 AM 66.2 °F - 61.9 °F 86% 29.64 in 10.0 mi South 11.5 mph 17.3 mph N/A   Overcast
3:55 AM 66.4 °F - 61.7 °F 85% 29.64 in 10.0 mi South 12.7 mph - N/A   Overcast
4:15 AM 66.4 °F - 61.7 °F 85% 29.65 in 10.0 mi South 17.3 mph 21.9 mph N/A   Overcast
4:35 AM 66.4 °F - 61.3 °F 84% 29.64 in 10.0 mi South 13.8 mph 20.7 mph N/A   Overcast
4:55 AM 66.2 °F - 61.2 °F 84% 29.63 in 10.0 mi South 13.8 mph 19.6 mph N/A   Overcast
5:15 AM 65.7 °F - 61.0 °F 85% 29.62 in 10.0 mi SSE 11.5 mph - N/A   Overcast
5:35 AM 65.3 °F - 60.8 °F 85% 29.62 in 10.0 mi South 13.8 mph - N/A   Overcast
5:55 AM 65.3 °F - 60.4 °F 84% 29.61 in 10.0 mi South 12.7 mph 20.7 mph N/A   Overcast
6:15 AM 65.3 °F - 60.3 °F 84% 29.59 in 10.0 mi South 11.5 mph 20.7 mph N/A   Overcast
6:35 AM 64.8 °F - 60.1 °F 85% 29.59 in 10.0 mi South 13.8 mph 18.4 mph N/A   Overcast
7:15 AM 64.0 °F - 59.5 °F 85% 29.57 in 10.0 mi South 16.1 mph 23.0 mph N/A   Overcast
7:35 AM 64.0 °F - 59.5 °F 85% 29.58 in 10.0 mi South 18.4 mph 23.0 mph N/A   Overcast
8:15 AM 64.4 °F - 59.5 °F 84% 29.57 in 10.0 mi SSE 15.0 mph 24.2 mph N/A   Overcast
8:35 AM 64.4 °F - 59.5 °F 84% 29.56 in 10.0 mi South 16.1 mph 23.0 mph N/A   Overcast
8:55 AM 64.6 °F - 59.5 °F 84% 29.57 in 10.0 mi South 17.3 mph 26.5 mph N/A   Overcast
9:15 AM 64.8 °F - 59.5 °F 83% 29.56 in 10.0 mi South 12.7 mph - N/A   Overcast
9:35 AM 64.9 °F - 59.4 °F 82% 29.56 in 10.0 mi South 18.4 mph 26.5 mph N/A   Overcast
9:55 AM 63.9 °F - 59.9 °F 87% 29.55 in 10.0 mi South 15.0 mph 25.3 mph N/A Rain Light Rain
10:15 AM 61.2 °F - 57.6 °F 88% 29.56 in 10.0 mi West 6.9 mph 16.1 mph N/A Rain Rain
10:35 AM 59.4 °F - 56.8 °F 91% 29.56 in 10.0 mi West 3.5 mph - N/A   Overcast
10:55 AM 57.9 °F - 55.8 °F 92% 29.55 in 4.0 mi Calm Calm - 0.01 in Rain Rain
11:15 AM 57.2 °F - 56.3 °F 97% 29.56 in 4.0 mi West 3.5 mph - N/A Thunderstorm Unknown
11:35 AM 56.8 °F - 56.3 °F 98% 29.55 in 2.5 mi Calm Calm - 0.01 in   Heavy Drizzle
11:55 AM 56.3 °F - 55.6 °F 97% 29.55 in 4.0 mi West 5.8 mph - 0.03 in Rain Light Rain
12:15 PM 56.5 °F - 55.6 °F 97% 29.54 in 10.0 mi SSW 3.5 mph - N/A Rain Rain
12:35 PM 56.7 °F - 55.6 °F 96% 29.53 in 10.0 mi West 4.6 mph - N/A Rain Light Rain
12:55 PM 56.3 °F - 55.0 °F 96% 29.54 in 5.0 mi WSW 5.8 mph - 0.02 in Rain , Thunderstorm Rain
1:15 PM 55.6 °F - 54.0 °F 94% 29.58 in 7.0 mi WSW 18.4 mph 28.8 mph 0.01 in Thunderstorm Unknown
1:35 PM 51.6 °F - 50.0 °F 94% 29.55 in 7.0 mi West 11.5 mph 17.3 mph 0.07 in Rain Light Rain
1:55 PM 50.4 °F - 49.1 °F 95% 29.56 in 5.0 mi West 11.5 mph 23.0 mph 0.13 in Rain Rain
2:15 PM 49.1 °F - 47.3 °F 93% 29.59 in 4.0 mi WNW 11.5 mph 25.3 mph 0.05 in Rain , Thunderstorm Light Thunderstorms and Rain
2:35 PM 48.2 °F - 46.6 °F 94% 29.58 in 10.0 mi WNW 9.2 mph 19.6 mph 0.05 in Rain , Thunderstorm Light Thunderstorms and Rain
2:55 PM 46.4 °F 41.1 °F 45.0 °F 95% 29.59 in 5.0 mi West 11.5 mph 20.7 mph 0.08 in Rain , Thunderstorm Rain
3:15 PM 46.0 °F 41.9 °F 44.6 °F 95% 29.63 in 7.0 mi West 8.1 mph 20.7 mph 0.02 in Rain , Thunderstorm Rain
3:35 PM 44.4 °F 37.5 °F 42.8 °F 94% 29.63 in 7.0 mi West 15.0 mph 20.7 mph 0.03 in Rain , Thunderstorm Light Thunderstorms and Rain
3:55 PM 42.1 °F 34.9 °F 40.5 °F 94% 29.66 in 7.0 mi WNW 13.8 mph 21.9 mph 0.09 in Rain Light Rain
4:15 PM 41.7 °F 35.2 °F 39.7 °F 93% 29.66 in 7.0 mi WNW 11.5 mph 19.6 mph 0.01 in Rain , Thunderstorm Rain
4:35 PM 41.2 °F 34.1 °F 39.4 °F 93% 29.68 in 10.0 mi WNW 12.7 mph 20.7 mph 0.02 in Rain Light Rain
4:55 PM 41.0 °F 33.9 °F 39.2 °F 93% 29.69 in 10.0 mi WNW 12.7 mph 18.4 mph 0.02 in Rain Light Rain
5:15 PM 40.6 °F 33.0 °F 38.3 °F 91% 29.73 in 7.0 mi WNW 13.8 mph 20.7 mph N/A   Overcast
5:55 PM 39.2 °F 31.2 °F 36.7 °F 91% 29.77 in 10.0 mi NW 13.8 mph 21.9 mph N/A   Overcast
6:15 PM 38.8 °F 32.1 °F 36.0 °F 89% 29.78 in 10.0 mi WNW 10.4 mph 23.0 mph N/A   Overcast
6:35 PM 38.3 °F 31.4 °F 35.6 °F 90% 29.82 in 10.0 mi WNW 10.4 mph 18.4 mph N/A   Overcast
6:55 PM 38.3 °F 31.4 °F 35.1 °F 88% 29.84 in 10.0 mi WNW 10.4 mph 19.6 mph N/A   Overcast
7:15 PM 37.9 °F 31.5 °F 34.7 °F 88% 29.86 in 10.0 mi WNW 9.2 mph 16.1 mph N/A   Overcast
7:35 PM 37.9 °F 32.7 °F 34.0 °F 86% 29.86 in 10.0 mi WNW 6.9 mph 18.4 mph N/A   Overcast
8:15 PM 37.9 °F 29.6 °F 34.0 °F 86% 29.89 in 10.0 mi WNW 13.8 mph 24.2 mph N/A   Overcast
8:35 PM 37.4 °F 27.5 °F 33.1 °F 84% 29.91 in 10.0 mi West 18.4 mph 32.2 mph N/A   Overcast
8:55 PM 36.1 °F 28.2 °F 31.6 °F 84% 29.93 in 10.0 mi WNW 11.5 mph 28.8 mph N/A   Overcast
9:15 PM 36.0 °F 26.3 °F 29.5 °F 77% 29.94 in 10.0 mi WNW 16.1 mph 28.8 mph N/A   Overcast
9:35 PM 35.8 °F 27.3 °F 29.7 °F 78% 29.95 in 10.0 mi WNW 12.7 mph 27.6 mph N/A   Overcast
9:55 PM 35.8 °F 28.3 °F 29.1 °F 77% 29.96 in 10.0 mi WNW 10.4 mph 26.5 mph N/A   Overcast
10:15 PM 35.6 °F 27.1 °F 28.4 °F 75% 29.98 in 10.0 mi WNW 12.7 mph 25.3 mph N/A   Overcast
10:35 PM 35.1 °F 27.9 °F 28.0 °F 76% 29.99 in 10.0 mi WNW 9.2 mph 21.9 mph N/A   Overcast
10:55 PM 34.7 °F 26.4 °F 28.0 °F 77% 30.01 in 10.0 mi WNW 11.5 mph 17.3 mph N/A   Scattered Clouds
11:15 PM 34.0 °F 26.0 °F 28.0 °F 79% 30.02 in 10.0 mi WNW 10.4 mph 16.1 mph N/A   Clear
11:35 PM 33.8 °F 25.3 °F 28.2 °F 80% 30.03 in 10.0 mi West 11.5 mph 19.6 mph N/A   Clear
11:55 PM 33.8 °F 27.0 °F 28.4 °F 81% 30.04 in 10.0 mi WNW 8.1 mph 18.4 mph N/A   Scattered Clouds